UWE-3

Last updated on Sun Jun 21 2026 00:03:20 GMT+0000 (Coordinated Universal Time)

1 39446U 13066AG 26171.42396227 .00003773 00000+0 32554-3 0 9995 2 39446 97.8702 127.5192 0047200 310.2944 49.4156 14.97047513678061
UTC large
Height (km)
Speed (km/s)
/
Latitude / Longitude
Inclination (degrees)
Orbital Period (minutes)
Azimuth
Elevation
Range (km)
Doppler Factor

Next 0 passes for location: London (51.5072 / 0.1276)

No passes found over London.
UWE-3